Location: Newark
(55.7083°N, 13.1992°E)
Time: 14:26:19
(UTC+00:00)

Transit 4A - Pass Details

Date: 26 February 2020
Orbit: 871 x 973 km, 66.8° (Epoch: 08 April)

Event Time Altitude Azimuth Distance (km) Brightness Sun altitude
Exits shadow 04:05:37 10° 315° (NW) 2,515 9.8 -17.8°
Maximum altitude 04:10:48 33° 18° (NNE) 1,443 9.2 -17.1°
Drops below altitude 10° 04:16:04 10° 82° (E) 2,544 11.6 -16.4°
Sets 04:18:50 0° 92° (E) 3,492 12.6 -16.0°
